This is the latest recevied weather packets stored in our database for station/object KR4CWL-13. If no packets are shown the sender has not sent any weather packets the latest 1 day(s).
| Time | Temp. | Humidity | Pressure | Rain* | Wind** | Luminosity | Snow |
|---|---|---|---|---|---|---|---|
| 1836274303 | 19.44° C | 89% | 1013.2 hPa | 0 mm | 0 m/s | - | - |
| 1836274153 | 19.44° C | 89% | 1012.9 hPa | 0 mm | 0 m/s | - | - |
| 1778045739 | 17.78° C | 77% | 1008.1 hPa | 0 mm | 1.79 m/s, 135° | - | - |
| 1778045139 | 17.78° C | 77% | 1008.1 hPa | 0 mm | 1.79 m/s, 45° | - | - |
| 1778044539 | 17.78° C | 77% | 1008.1 hPa | 0 mm | 2.24 m/s, 45° | - | - |
| 1778043939 | 17.78° C | 77% | 1008.5 hPa | 0 mm | 2.68 m/s, 158° | - | - |
| 1778043339 | 17.78° C | 76% | 1008.1 hPa | 0 mm | 0.89 m/s, 135° | - | - |
| 1778042739 | 18.33° C | 76% | 1008.1 hPa | 0 mm | 0.89 m/s, 158° | - | - |
| 1778042139 | 18.33° C | 75% | 1008.1 hPa | 0 mm | 2.24 m/s, 45° | - | - |
| 1778041539 | 18.33° C | 74% | 1008.1 hPa | 0 mm | 2.68 m/s, 45° | - | - |
| 1778040938 | 18.33° C | 74% | 1008.1 hPa | 0 mm | 1.79 m/s, 203° | - | - |
| 1778040338 | 18.89° C | 74% | 1008.1 hPa | 0 mm | 1.79 m/s, 158° | - | - |
| 1778039739 | 18.89° C | 74% | 1008.1 hPa | 0 mm | 2.24 m/s, 135° | - | - |
| 1778039145 | 18.89° C | 73% | 1008.1 hPa | 0 mm | 1.34 m/s, 270° | - | - |
| 1778038538 | 18.89° C | 73% | 1008.1 hPa | 0 mm | 2.24 m/s, 45° | - | - |
| 1778037938 | 18.89° C | 72% | 1008.1 hPa | 0 mm | 1.79 m/s, 203° | - | - |
| 1778037338 | 18.89° C | 71% | 1008.1 hPa | 0 mm | 1.34 m/s, 203° | - | - |
| 1778036738 | 18.89° C | 71% | 1008.1 hPa | 0 mm | 2.24 m/s, 203° | - | - |
| 1778036138 | 19.44° C | 70% | 1008.1 hPa | 0 mm | 1.79 m/s, 45° | - | - |
| 1778035538 | 19.44° C | 68% | 1008.1 hPa | 0 mm | 1.34 m/s, 203° | - | - |
| 1778034938 | 19.44° C | 66% | 1008.5 hPa | 0 mm | 2.68 m/s, 203° | - | - |
| 1778034338 | 19.44° C | 63% | 1008.1 hPa | 0 mm | 1.79 m/s, 225° | - | - |
| 1778033738 | 20° C | 60% | 1008.1 hPa | 0 mm | 1.34 m/s, 158° | - | - |
| 1778033138 | 20° C | 58% | 1008.1 hPa | 0 mm | 1.34 m/s, 203° | - | - |
| 1778032538 | 20° C | 57% | 1007.8 hPa | 0 mm | 0 m/s | - | - |
* Rain since midnight (hover to see other rain measurements)
** Current wind speed in m/s (hover to see current wind gust speed)